Weather History for KFFM - January, 2013

Change the Weather History Date:

Saturday, January 26, 2013

  Actual Average Record
Temperature  
Mean Temperature 5 °F -  
Max Temperature 17 °F 15 °F - (-1)
Min Temperature -7 °F -5 °F - (-1)
Degree Days  
Heating Degree Days 60    
Moisture  
Dew Point 0 °F    
Average Humidity 72    
Maximum Humidity 84    
Minimum Humidity 62    
Precipitation  
Precipitation 0.00 in - - ()
Sea Level Pressure  
Sea Level Pressure 30.14 in    
Wind  
Wind Speed 8 mph (SE)    
Max Wind Speed 26 mph    
Max Gust Speed 29 mph    
Visibility 10 miles    
Events      
Averages and records for this station are not official NWS values.
T = Trace of Precipitation, MM = Missing Value Source: NWS Daily Summary

Daily Weather History Graph

Daily Weather History Graph

Search for Another Location

Airport or City:

Trip Planner

Search our weather history database for the weather conditions in past years. The results will help you decide how hot, cold, wet, or windy it might be!

Date:

Astronomy

Jan. 26, 2013 Rise Set
Actual Time 7:54 AM CST 5:20 PM CST
Civil Twilight 7:21 AM CST 5:53 PM CST
Nautical Twilight 6:45 AM CST 6:29 PM CST
Astronomical Twilight 6:09 AM CST 7:05 PM CST
Moon 5:19 PM CST (1/26) 7:10 AM CST (1/26)
Length of Visible Light 10h 32m
Length of Day
9h 26m
Full, 100% of the Moon is Illuminated
Jan 26
Full
Jan 26
Full
Feb 3
Last Quarter
Feb 10
New
Feb 17
First Quarter

Hourly Weather History & Observations

Time (CST) Temp. Windchill Dew Point Humidity Pressure Visibility Wind Dir Wind Speed Gust Speed Precip Events Conditions
12:13 AM -7.6 °F - -11.2 °F 84% 30.31 in 10.0 mi Calm Calm - N/A   Clear
12:34 AM -7.6 °F -18.8 °F -11.2 °F 84% 30.30 in 10.0 mi East 4.6 mph - N/A   Clear
12:53 AM -7.6 °F -18.8 °F -11.2 °F 84% 30.30 in 10.0 mi East 4.6 mph - N/A   Clear
1:13 AM -7.6 °F - -11.2 °F 84% 30.29 in 10.0 mi Calm Calm - N/A   Clear
1:34 AM -5.8 °F -16.7 °F -11.2 °F 77% 30.27 in 10.0 mi East 4.6 mph - N/A   Clear
1:53 AM -5.8 °F - -11.2 °F 77% 30.27 in 10.0 mi Calm Calm - N/A   Clear
2:13 AM -5.8 °F - -11.2 °F 77% 30.27 in 10.0 mi Calm Calm - N/A   Clear
2:34 AM -5.8 °F - -11.2 °F 77% 30.27 in 10.0 mi Calm Calm - N/A   Clear
2:53 AM -5.8 °F - -11.2 °F 77% 30.27 in 10.0 mi Calm Calm - N/A   Clear
3:13 AM -5.8 °F -14.5 °F -11.2 °F 77% 30.26 in 10.0 mi SE 3.5 mph - N/A   Clear
3:33 AM -5.8 °F -14.5 °F -11.2 °F 77% 30.27 in 10.0 mi SE 3.5 mph - N/A   Clear
3:53 AM -5.8 °F -14.5 °F -11.2 °F 77% 30.26 in 10.0 mi SSE 3.5 mph - N/A   Clear
4:13 AM -5.8 °F -18.4 °F -11.2 °F 77% 30.24 in 10.0 mi SE 5.8 mph - N/A   Clear
4:33 AM -5.8 °F -21.2 °F -9.4 °F 84% 30.24 in 10.0 mi SE 8.1 mph - N/A   Clear
4:53 AM -5.8 °F -18.4 °F -9.4 °F 84% 30.25 in 10.0 mi SE 5.8 mph - N/A   Clear
5:13 AM -4.0 °F -17.8 °F -9.4 °F 78% 30.26 in 10.0 mi SE 6.9 mph - N/A   Clear
5:33 AM -5.8 °F -19.9 °F -9.4 °F 84% 30.25 in 10.0 mi SSE 6.9 mph - N/A   Scattered Clouds
5:53 AM -4.0 °F -19.0 °F -9.4 °F 78% 30.25 in 10.0 mi SSE 8.1 mph - N/A   Mostly Cloudy
6:13 AM -2.2 °F -16.8 °F -9.4 °F 71% 30.24 in 10.0 mi SSE 8.1 mph - N/A   Mostly Cloudy
6:33 AM -2.2 °F -20.7 °F -7.6 °F 78% 30.23 in 10.0 mi SSE 12.7 mph - N/A   Clear
6:53 AM -0.4 °F -18.4 °F -7.6 °F 72% 30.22 in 10.0 mi SE 12.7 mph - N/A   Clear
7:13 AM -0.4 °F -16.7 °F -5.8 °F 78% 30.22 in 10.0 mi SSE 10.4 mph - N/A   Clear
7:33 AM 1.4 °F -15.3 °F -5.8 °F 72% 30.24 in 10.0 mi South 11.5 mph - N/A   Mostly Cloudy
7:53 AM 1.4 °F -16.9 °F -5.8 °F 72% 30.23 in 10.0 mi SSE 13.8 mph - N/A   Overcast
8:13 AM 1.4 °F -17.6 °F -5.8 °F 72% 30.23 in 10.0 mi SSE 15.0 mph - N/A   Overcast
8:33 AM 1.4 °F -16.9 °F -5.8 °F 72% 30.22 in 10.0 mi SSE 13.8 mph - N/A   Overcast
8:53 AM 3.2 °F -15.9 °F -4.0 °F 72% 30.21 in 10.0 mi SSE 16.1 mph - N/A   Overcast
9:13 AM 3.2 °F -17.1 °F -4.0 °F 72% 30.22 in 10.0 mi SSE 18.4 mph - N/A   Scattered Clouds
9:33 AM 3.2 °F -17.1 °F -2.2 °F 78% 30.21 in 10.0 mi SSE 18.4 mph - N/A   Clear
9:53 AM 3.2 °F -17.6 °F -2.2 °F 78% 30.19 in 10.0 mi SSE 19.6 mph - N/A   Clear
10:13 AM 5.0 °F -15.2 °F -2.2 °F 72% 30.18 in 10.0 mi SSE 19.6 mph - N/A   Clear
10:53 AM 6.8 °F -10.7 °F -0.4 °F 72% 30.19 in 10.0 mi SSE 15.0 mph - N/A   Clear
11:13 AM 6.8 °F -14.3 °F -0.4 °F 72% 30.19 in 10.0 mi SSE 23.0 mph 26.5 mph N/A   Clear
11:33 AM 8.6 °F -11.9 °F -0.4 °F 67% 30.17 in 10.0 mi SSE 23.0 mph 28.8 mph N/A   Clear
11:53 AM 8.6 °F -13.1 °F 1.4 °F 73% 30.14 in 7.0 mi SSE 26.5 mph - N/A   Clear
12:13 PM 8.6 °F -11.4 °F 1.4 °F 73% 30.13 in 10.0 mi SSE 21.9 mph - N/A   Clear
12:33 PM 10.4 °F -8.6 °F 1.4 °F 67% 30.12 in 10.0 mi SE 20.7 mph - N/A   Clear
12:53 PM 12.2 °F -5.3 °F 3.2 °F 67% 30.11 in 10.0 mi SSE 18.4 mph - N/A   Clear
1:13 PM 12.2 °F -6.7 °F 3.2 °F 67% 30.09 in 10.0 mi SSE 21.9 mph - N/A   Clear
1:33 PM 14.0 °F -3.9 °F 3.2 °F 62% 30.09 in 10.0 mi SSE 20.7 mph - N/A   Clear
1:53 PM 14.0 °F -2.5 °F 3.2 °F 62% 30.07 in 10.0 mi SE 17.3 mph - N/A   Clear
2:14 PM 15.8 °F 0.9 °F 5.0 °F 62% 30.06 in 10.0 mi SE 15.0 mph 18.4 mph N/A   Clear
2:33 PM 15.8 °F 2.1 °F 5.0 °F 62% 30.07 in 10.0 mi SE 12.7 mph - N/A   Clear
2:53 PM 15.8 °F 0.3 °F 6.8 °F 68% 30.07 in 10.0 mi SSE 16.1 mph - N/A   Clear
3:33 PM 17.6 °F 2.7 °F 6.8 °F 63% 30.06 in 10.0 mi SSE 16.1 mph - N/A   Clear
3:53 PM 17.6 °F 3.7 °F 6.8 °F 63% 30.06 in 10.0 mi SSE 13.8 mph - N/A   Clear
4:13 PM 17.6 °F 2.2 °F 6.8 °F 63% 30.05 in 10.0 mi SSE 17.3 mph - N/A   Clear
4:33 PM 17.6 °F 4.3 °F 8.6 °F 68% 30.05 in 10.0 mi SSE 12.7 mph - N/A   Clear
4:53 PM 17.6 °F 2.2 °F 8.6 °F 68% 30.05 in 10.0 mi SSE 17.3 mph - N/A   Clear
5:14 PM 17.6 °F 2.7 °F 8.6 °F 68% 30.04 in 10.0 mi South 16.1 mph - N/A   Scattered Clouds
5:33 PM 17.6 °F 5.0 °F 8.6 °F 68% 30.04 in 10.0 mi SSE 11.5 mph - N/A   Scattered Clouds
5:53 PM 17.6 °F 5.0 °F 8.6 °F 68% 30.05 in 10.0 mi SSE 11.5 mph - N/A   Scattered Clouds
6:13 PM 17.6 °F 6.4 °F 8.6 °F 68% 30.04 in 10.0 mi SE 9.2 mph - N/A   Clear
6:33 PM 17.6 °F 5.7 °F 8.6 °F 68% 30.05 in 10.0 mi SSE 10.4 mph - N/A   Clear
6:53 PM 17.6 °F 7.3 °F 8.6 °F 68% 30.05 in 10.0 mi ESE 8.1 mph - N/A   Clear
7:13 PM 17.6 °F 8.2 °F 8.6 °F 68% 30.06 in 10.0 mi ESE 6.9 mph - N/A   Clear
7:33 PM 17.6 °F 9.3 °F 8.6 °F 68% 30.05 in 10.0 mi ESE 5.8 mph - N/A   Clear
7:53 PM 15.8 °F 5.1 °F 8.6 °F 73% 30.05 in 10.0 mi SE 8.1 mph - N/A   Clear
8:13 PM 15.8 °F 4.2 °F 8.6 °F 73% 30.05 in 10.0 mi SE 9.2 mph - N/A   Clear
8:33 PM 15.8 °F 5.1 °F 8.6 °F 73% 30.04 in 10.0 mi ESE 8.1 mph - N/A   Clear
8:53 PM 15.8 °F 4.2 °F 8.6 °F 73% 30.03 in 10.0 mi SE 9.2 mph - N/A   Clear
9:13 PM 17.6 °F 6.4 °F 8.6 °F 68% 30.02 in 10.0 mi SE 9.2 mph - N/A   Scattered Clouds
9:33 PM 17.6 °F 6.4 °F 8.6 °F 68% 30.02 in 10.0 mi SE 9.2 mph - N/A   Scattered Clouds
9:53 PM 17.6 °F 5.7 °F 8.6 °F 68% 30.01 in 10.0 mi SE 10.4 mph - N/A   Clear
10:13 PM 17.6 °F 7.3 °F 8.6 °F 68% 30.01 in 10.0 mi ESE 8.1 mph - N/A   Clear
10:33 PM 17.6 °F 6.4 °F 8.6 °F 68% 30.01 in 10.0 mi ESE 9.2 mph - N/A   Clear
10:53 PM 17.6 °F 5.7 °F 8.6 °F 68% 30.01 in 10.0 mi ESE 10.4 mph - N/A   Clear
11:13 PM 17.6 °F 5.7 °F 8.6 °F 68% 30.00 in 10.0 mi ESE 10.4 mph - N/A   Clear
11:33 PM 17.6 °F 5.0 °F 8.6 °F 68% 30.00 in 10.0 mi ESE 11.5 mph - N/A   Clear
11:53 PM 17.6 °F 4.3 °F 8.6 °F 68% 29.99 in 10.0 mi ESE 12.7 mph - N/A   Clear